When you browse on this site, cookies collect data to enhance your experience and personalize the content and advertising you see.
Visit our Privacy Policy to learn more. By continuing to use the site, you agree to this use of cookies and data.
  • In Latvia
  • List of Countries
  • For 7 days
  • Water Temperature
  • Weather Map
  • Weather Widgets
  • user-avatar
    Login

    Hourly Weather Innsbruck

    Today, 6 April, Monday

    Time Temperature Precipitation Wind Pressure Humidity
    00:00 -5°C° 0 mm 3 mps 597 mmHg 80%
    01:00 -5°C° 0 mm 3 mps 597 mmHg 80%
    02:00 -5°C° 0 mm 3 mps 597 mmHg 79%
    03:00 -6°C° 0 mm 3 mps 597 mmHg 77%
    04:00 -6°C° 0 mm 3 mps 597 mmHg 76%
    05:00 -4°C° 0 mm 2 mps 597 mmHg 71%
    06:00 -4°C° 0 mm 2 mps 598 mmHg 66%
    07:00 -3°C° 0 mm 2 mps 598 mmHg 62%
    08:00 +2°C° 0 mm 1 mps 599 mmHg 55%
    09:00 +4°C° 0 mm 1 mps 600 mmHg 48%
    10:00 +7°C° 0 mm 1 mps 601 mmHg 42%
    11:00 +8°C° 0 mm 1 mps 602 mmHg 39%
    12:00 +9°C° 0 mm 1 mps 602 mmHg 37%
    13:00 +10°C° 0 mm 1 mps 602 mmHg 35%
    14:00 +10°C° 0 mm 1 mps 602 mmHg 36%
    15:00 +9°C° 0 mm 1 mps 602 mmHg 38%
    16:00 +9°C° 0 mm 1 mps 602 mmHg 39%
    17:00 +7°C° 0 mm 1 mps 601 mmHg 50%
    18:00 +4°C° 0 mm 1 mps 600 mmHg 61%
    19:00 +1°C° 0 mm 1 mps 599 mmHg 73%
    20:00 +1°C° 0 mm 1 mps 599 mmHg 75%
    21:00 0°C° 0 mm 1 mps 600 mmHg 77%
    22:00 -1°C° 0 mm 0 mps 600 mmHg 79%
    23:00 0°C° 0 mm 1 mps 600 mmHg 79%

    Tomorrow, 7 April, Tuesday

    Time Temperature Precipitation Wind Pressure Humidity
    00:00 -1°C° 0 mm 1 mps 600 mmHg 79%
    01:00 -1°C° 0 mm 1 mps 600 mmHg 79%
    02:00 -1°C° 0 mm 1 mps 600 mmHg 81%
    03:00 -1°C° 0 mm 1 mps 600 mmHg 82%
    04:00 -1°C° 0 mm 1 mps 600 mmHg 84%
    05:00 0°C° 0 mm 1 mps 601 mmHg 82%
    06:00 0°C° 0 mm 1 mps 601 mmHg 81%
    07:00 +1°C° 0 mm 1 mps 602 mmHg 79%
    08:00 +3°C° 0 mm 1 mps 602 mmHg 72%
    09:00 +5°C° 0 mm 1 mps 603 mmHg 64%
    10:00 +7°C° 0 mm 1 mps 604 mmHg 56%
    11:00 +8°C° 0 mm 1 mps 604 mmHg 52%
    12:00 +9°C° 0 mm 1 mps 604 mmHg 49%
    13:00 +10°C° 0 mm 1 mps 604 mmHg 45%
    14:00 +10°C° 0 mm 1 mps 604 mmHg 45%
    15:00 +10°C° 0 mm 1 mps 604 mmHg 46%
    16:00 +9°C° 0 mm 2 mps 604 mmHg 46%
    17:00 +8°C° 0 mm 1 mps 603 mmHg 58%
    18:00 +5°C° 0 mm 1 mps 601 mmHg 69%
    19:00 +3°C° 0 mm 1 mps 600 mmHg 81%
    20:00 +2°C° 0 mm 1 mps 601 mmHg 81%
    21:00 +2°C° 0 mm 1 mps 601 mmHg 80%
    22:00 -1°C° 0 mm 2 mps 601 mmHg 80%
    23:00 -1°C° 0 mm 2 mps 601 mmHg 80%

    Day after tomorrow, 8 April, Wednesday

    Time Temperature Precipitation Wind Pressure Humidity
    00:00 -1°C° 0 mm 2 mps 601 mmHg 80%
    01:00 -2°C° 0 mm 2 mps 600 mmHg 81%
    02:00 0°C° 0 mm 1 mps 600 mmHg 80%
    03:00 0°C° 0 mm 1 mps 600 mmHg 79%
    04:00 0°C° 0 mm 1 mps 600 mmHg 79%
    05:00 +1°C° 0 mm 1 mps 600 mmHg 76%
    06:00 +2°C° 0 mm 1 mps 600 mmHg 73%
    07:00 +2°C° 0 mm 1 mps 601 mmHg 71%
    08:00 +5°C° 0 mm 1 mps 602 mmHg 64%
    09:00 +7°C° 0 mm 1 mps 602 mmHg 58%
    10:00 +9°C° 0 mm 1 mps 603 mmHg 52%
    11:00 +10°C° 0 mm 1 mps 603 mmHg 51%
    12:00 +10°C° 0 mm 1 mps 603 mmHg 50%
    13:00 +10°C° 0 mm 1 mps 603 mmHg 49%
    14:00 +10°C° 0.2 mm 1 mps 602 mmHg 53%
    15:00 +10°C° 0.2 mm 1 mps 602 mmHg 58%
    16:00 +9°C° 0.2 mm 1 mps 601 mmHg 62%
    17:00 +7°C° 0.4 mm 1 mps 600 mmHg 72%
    18:00 +5°C° 0.4 mm 1 mps 599 mmHg 82%
    19:00 +2°C° 0.4 mm 0 mps 598 mmHg 92%
    20:00 +2°C° 0.1 mm 0 mps 599 mmHg 93%
    21:00 +2°C° 0.1 mm 0 mps 599 mmHg 94%
    22:00 +1°C° 0.1 mm 0 mps 599 mmHg 94%
    23:00 +1°C° 0 mm 0 mps 599 mmHg 95%

    9 April, Thursday

    Time Temperature Precipitation Wind Pressure Humidity
    00:00 +1°C° 0 mm 0 mps 599 mmHg 95%
    01:00 +1°C° 0 mm 0 mps 598 mmHg 95%
    02:00 +2°C° 0 mm 1 mps 598 mmHg 95%
    03:00 +2°C° 0 mm 1 mps 598 mmHg 95%
    04:00 +2°C° 0 mm 1 mps 598 mmHg 95%
    05:00 +2°C° 0.1 mm 1 mps 599 mmHg 94%
    06:00 +3°C° 0.1 mm 1 mps 599 mmHg 92%
    07:00 +3°C° 0.1 mm 1 mps 599 mmHg 91%
    08:00 +5°C° 0.1 mm 1 mps 599 mmHg 85%
    09:00 +6°C° 0.1 mm 1 mps 600 mmHg 80%
    10:00 +7°C° 0.1 mm 1 mps 600 mmHg 74%
    11:00 +8°C° 0.2 mm 1 mps 600 mmHg 71%
    12:00 +9°C° 0.2 mm 1 mps 600 mmHg 67%
    13:00 +9°C° 0.2 mm 1 mps 601 mmHg 64%
    14:00 +8°C° 0.6 mm 2 mps 600 mmHg 66%
    15:00 +8°C° 0.6 mm 2 mps 600 mmHg 69%
    16:00 +7°C° 0.6 mm 2 mps 599 mmHg 71%
    17:00 +6°C° 0.4 mm 2 mps 599 mmHg 79%
    18:00 +5°C° 0.4 mm 1 mps 598 mmHg 86%
    19:00 +3°C° 0.4 mm 1 mps 598 mmHg 93%
    20:00 +3°C° 0 mm 1 mps 598 mmHg 93%
    21:00 +3°C° 0 mm 1 mps 598 mmHg 93%
    22:00 +1°C° 0 mm 0 mps 598 mmHg 94%
    23:00 +1°C° 0 mm 0 mps 598 mmHg 93%

    10 April, Friday

    Time Temperature Precipitation Wind Pressure Humidity
    00:00 0°C° 0 mm 0 mps 597 mmHg 93%
    01:00 -1°C° 0 mm 0 mps 597 mmHg 93%
    02:00 -1°C° 0 mm 0 mps 597 mmHg 93%
    03:00 -1°C° 0 mm 0 mps 597 mmHg 92%
    04:00 -1°C° 0 mm 0 mps 597 mmHg 92%
    05:00 0°C° 0 mm 0 mps 597 mmHg 88%
    06:00 +1°C° 0 mm 0 mps 598 mmHg 84%
    07:00 +2°C° 0 mm 0 mps 599 mmHg 80%
    08:00 +4°C° 0 mm 0 mps 599 mmHg 72%
    09:00 +7°C° 0 mm 1 mps 600 mmHg 64%
    10:00 +9°C° 0 mm 1 mps 601 mmHg 55%
    11:00 +10°C° 0 mm 1 mps 601 mmHg 50%
    12:00 +12°C° 0 mm 1 mps 601 mmHg 45%
    13:00 +13°C° 0 mm 1 mps 601 mmHg 40%
    14:00 +12°C° 0 mm 1 mps 601 mmHg 41%
    15:00 +12°C° 0 mm 1 mps 600 mmHg 42%
    16:00 +12°C° 0 mm 1 mps 600 mmHg 43%
    17:00 +10°C° 0 mm 1 mps 599 mmHg 55%
    18:00 +7°C° 0 mm 1 mps 598 mmHg 66%
    19:00 +5°C° 0 mm 1 mps 597 mmHg 77%
    20:00 +4°C° 0 mm 1 mps 597 mmHg 80%
    21:00 +4°C° 0 mm 1 mps 597 mmHg 82%
    22:00 +3°C° 0 mm 1 mps 597 mmHg 84%
    23:00 +3°C° 0 mm 1 mps 597 mmHg 84%

    11 April, Saturday

    Time Temperature Precipitation Wind Pressure Humidity
    00:00 +3°C° 0 mm 1 mps 596 mmHg 84%
    01:00 +3°C° 0 mm 1 mps 596 mmHg 84%
    02:00 +2°C° 0 mm 1 mps 596 mmHg 84%
    03:00 +2°C° 0 mm 1 mps 596 mmHg 85%
    04:00 +2°C° 0 mm 1 mps 596 mmHg 85%
    05:00 +3°C° 0 mm 1 mps 596 mmHg 82%
    06:00 +4°C° 0 mm 1 mps 596 mmHg 79%
    07:00 +5°C° 0 mm 1 mps 597 mmHg 77%
    08:00 +6°C° 0 mm 1 mps 597 mmHg 70%
    09:00 +8°C° 0 mm 1 mps 597 mmHg 64%
    10:00 +10°C° 0 mm 1 mps 598 mmHg 58%
    11:00 +10°C° 0.3 mm 1 mps 598 mmHg 57%
    12:00 +10°C° 0.3 mm 1 mps 597 mmHg 56%
    13:00 +10°C° 0.3 mm 2 mps 597 mmHg 55%
    14:00 +9°C° 0.6 mm 2 mps 597 mmHg 58%
    15:00 +8°C° 0.6 mm 2 mps 596 mmHg 61%
    16:00 +8°C° 0.6 mm 2 mps 596 mmHg 64%
    17:00 +6°C° 0.6 mm 2 mps 595 mmHg 72%
    18:00 +6°C° 0.6 mm 1 mps 595 mmHg 80%
    19:00 +4°C° 0.6 mm 1 mps 594 mmHg 88%
    20:00 +4°C° 0.5 mm 1 mps 594 mmHg 90%
    21:00 +4°C° 0.5 mm 1 mps 594 mmHg 92%
    22:00 +3°C° 0.5 mm 1 mps 594 mmHg 94%
    23:00 +3°C° 0.5 mm 1 mps 594 mmHg 94%
    Show more